COSMOS 2251 DEB

Satellite information

Favourite Embed

Satellite Type and Status

DEBRISIN ORBIT

Key statistics

Satellite COSMOS 2251 DEB at a glance.

Uptime

11708

Days in orbit

Revolutions

≈ 14.5

Per day

Orbit

LEO

Low Earth Orbit

Inclination

74.1

Latest

Satellite identification and parameters

Extended collection of information and parameters for COSMOS 2251 DEB.

Object identification

Identified? True

Debris? True

Object name: COSMOS 2251 DEB

International designator: 1993-036KK

Object number (NORAD): 34114

Object ID (CCSDS): 34114

Country: COMMONWEALTH OF INDEPENDENT STATES (CIS)

Current information (Y/N): Y

RCS size: SMALL

Orbital parameters

Period: 99.096 minutes

Inclination: 74.0606 deg

SMA: 7093.576 km

Apoapsis: 751.939 km

Periapsis: 678.944 km

RAAN: 346.4319 deg

Eccentricy: 0.0051451

Argument of periapsis: 31.5419 deg

Mean anomaly: 28.7041 deg

Mean motion: 14.53131373 rev/day

Mean motion (dot): 0.00005103 rev/day2

B* drag term: 0.0012177 1/REarth

Two-line elements (TLE)

Creation date: July 5, 2025, 5:45 p.m.

Reference frame: TEME

Reference center: EARTH

Epoch: July 5, 2025, 12:43 p.m. UTC

TLE line 0: 0 COSMOS 2251 DEB

TLE line 1: 1 34114U 93036KK 25186.53027663 .00005103 00000-0 12177-2 0 9997

TLE line 2: 2 34114 74.0606 346.4319 0051451 31.5419 28.7041 14.53131373854726

Live tracking on map

Real-time ground track for satellite COSMOS 2251 DEB.

In-orbit conjunctions

A list of the most updated potential collisions computed for object COSMOS 2251 DEB.

Target Orbit TCA Probability of collision Miss distance Type
IRIDIUM 914 LEO 2024-10-09 05:22:00 0.0001782552 727.0 (m) PAYLOAD
SL-8 R/B LEO 2024-08-27 00:10:07 0.0001113722 786.0 (m) ROCKET BODY

Associated space launch

Military communications satellite. Destroyed in a collision with Iridium 33.

COSMOS 2251 DEB was lifted into orbit during the mission ‘Kosmos-3M | Strela-2M 51’, on board a Kosmos-3M space rocket.

The launch took place on June 16, 1993, 4:17 a.m. from 132/1 (132L).

For more information about the launch, click the button.

Launch to space Kosmos-3M | Strela-2M 51
Kosmos-3M | Strela-2M 51

Agency: N/A

Status: Launch Successful

Launch date: June 16, 1993, 4:17 a.m. UTC

Rocket: Kosmos-3M

Launch pad: 132/1 (132L)

Location: Plesetsk Cosmodrome, Russian Federation

...

Latest news about this satellite

There are no fresh news available about this satellite. Check back as we update our databases every day.


Newsletter sign-up

Weekly statistics, charts and insights to help you stay on top of the space industry.